Location: Gellin
(53.4498°N, 14.3207°E)
Time: 22:43:23
(UTC+00:00)

Cosmos 1943 Rocket - Pass Details

Date: 03 March 2021
Orbit: 811 x 844 km, 71.0° (Epoch: 12 April)

Event Time Altitude Azimuth Distance (km) Brightness Sun altitude
Rises 17:12:59 0° 310° (NW) 3,411 6.1 -5.0°
Reaches altitude 10° 17:16:54 10° 337° (NNW) 2,478 4.9 -5.6°
Maximum altitude 17:19:37 13° 5° (N) 2,241 4.3 -6.0°
Drops below altitude 10° 17:22:20 10° 34° (NE) 2,478 4.3 -6.4°
Enters shadow 17:25:12 - 55° (NE) 3,118 4.6 -6.8°
